Weather History for KCHS - January, 2013

Change the Weather History Date:

Friday, January 18, 2013

  Actual Average Record
Temperature  
Mean Temperature 47 °F 48 °F  
Max Temperature 56 °F 59 °F 77 °F (1952)
Min Temperature 38 °F 37 °F 19 °F (1959)
Degree Days  
Heating Degree Days 18 17  
Month to date heating degree days 137 306  
Since 1 July heating degree days 835 1044  
Cooling Degree Days 0 0  
Month to date cooling degree days 17 0  
Year to date cooling degree days 17 0  
Moisture  
Dew Point 30 °F    
Average Humidity 55    
Maximum Humidity 85    
Minimum Humidity 24    
Precipitation  
Precipitation 0.00 in 0.12 in 0.96 in (1960)
Month to date precipitation 0.20 2.14  
Year to date precipitation 0.20 2.14  
Snow  
Snow 0.00 in 0.00 in - ()
Month to date snowfall 0.0  
Since 1 July snowfall 0.0 0.3  
Snow Depth 0.00 in    
Sea Level Pressure  
Sea Level Pressure 30.37 in    
Wind  
Wind Speed 12 mph (NNE)    
Max Wind Speed 26 mph    
Max Gust Speed 37 mph    
Visibility 10 miles    
Events      
T = Trace of Precipitation, MM = Missing Value Source: NWS Daily Summary

Daily Weather History Graph

Daily Weather History Graph

Search for Another Location

Airport or City:

Trip Planner

Search our weather history database for the weather conditions in past years. The results will help you decide how hot, cold, wet, or windy it might be!

Date:

Astronomy

Jan. 18, 2013 Rise Set
Actual Time 7:22 AM EST 5:39 PM EST
Civil Twilight 6:55 AM EST 6:06 PM EST
Nautical Twilight 6:25 AM EST 6:36 PM EST
Astronomical Twilight 5:55 AM EST 7:05 PM EST
Moon 11:26 AM EST (1/18) 12:03 AM EST (1/18)
Length of Visible Light 11h 10m
Length of Day
10h 17m
Waxing Crescent, 47% of the Moon is Illuminated
Jan 18
Waxing Crescent
Jan 18
First Quarter
Jan 26
Full
Feb 3
Last Quarter
Feb 10
New

Hourly Weather History & Observations

Time (EST) Temp. Windchill Dew Point Humidity Pressure Visibility Wind Dir Wind Speed Gust Speed Precip Events Conditions
12:56 AM 46.9 °F - 39.9 °F 77% 30.10 in 10.0 mi North 16.1 mph - N/A   Overcast
1:14 AM 46.4 °F 39.5 °F 39.2 °F 76% 30.11 in 10.0 mi North 17.3 mph 26.5 mph N/A   Scattered Clouds
1:56 AM 45.0 °F 37.6 °F 37.9 °F 76% 30.17 in 10.0 mi North 17.3 mph 26.5 mph N/A   Scattered Clouds
2:14 AM 44.6 °F 37.4 °F 37.4 °F 76% 30.19 in 10.0 mi North 16.1 mph 27.6 mph N/A   Mostly Cloudy
2:56 AM 45.0 °F 36.6 °F 37.0 °F 74% 30.21 in 10.0 mi North 21.9 mph 36.8 mph N/A   Scattered Clouds
3:56 AM 43.0 °F 34.8 °F 36.0 °F 76% 30.25 in 10.0 mi North 18.4 mph 28.8 mph N/A   Partly Cloudy
4:56 AM 41.0 °F 33.9 °F 36.0 °F 82% 30.27 in 10.0 mi North 12.7 mph - N/A   Clear
5:56 AM 39.9 °F 32.9 °F 35.1 °F 83% 30.30 in 10.0 mi North 11.5 mph - N/A   Clear
6:56 AM 39.0 °F 31.4 °F 35.1 °F 86% 30.35 in 10.0 mi North 12.7 mph - N/A   Clear
7:56 AM 39.9 °F 33.4 °F 35.1 °F 83% 30.38 in 10.0 mi North 10.4 mph - N/A   Partly Cloudy
8:56 AM 43.0 °F 36.4 °F 35.1 °F 74% 30.42 in 10.0 mi North 12.7 mph 19.6 mph N/A   Partly Cloudy
9:56 AM 46.0 °F 38.8 °F 32.0 °F 58% 30.45 in 10.0 mi NNE 18.4 mph 24.2 mph N/A   Clear
10:56 AM 48.9 °F - 28.0 °F 44% 30.46 in 10.0 mi NNE 15.0 mph 24.2 mph N/A   Clear
11:56 AM 53.1 °F - 26.1 °F 35% 30.45 in 10.0 mi NNE 15.0 mph - N/A   Clear
12:56 PM 55.0 °F - 25.0 °F 31% 30.43 in 10.0 mi North 15.0 mph - N/A   Partly Cloudy
1:56 PM 55.0 °F - 23.0 °F 29% 30.42 in 10.0 mi NE 8.1 mph 19.6 mph N/A   Partly Cloudy
2:56 PM 55.9 °F - 19.0 °F 24% 30.42 in 10.0 mi NE 13.8 mph - N/A   Partly Cloudy
3:56 PM 55.9 °F - 21.0 °F 26% 30.43 in 10.0 mi NNE 8.1 mph - N/A   Partly Cloudy
4:56 PM 53.1 °F - 21.0 °F 29% 30.45 in 10.0 mi North 9.2 mph - N/A   Partly Cloudy
5:56 PM 48.0 °F - 23.0 °F 37% 30.47 in 10.0 mi NE 6.9 mph - N/A   Partly Cloudy
6:56 PM 45.0 °F 40.1 °F 26.1 °F 48% 30.48 in 10.0 mi NNE 9.2 mph - N/A   Clear
7:56 PM 43.0 °F 38.8 °F 26.1 °F 51% 30.49 in 10.0 mi NE 6.9 mph - N/A   Clear
8:56 PM 42.1 °F 37.7 °F 26.1 °F 53% 30.50 in 10.0 mi NE 6.9 mph - N/A   Clear
9:56 PM 39.9 °F 36.7 °F 27.0 °F 60% 30.50 in 10.0 mi NNE 4.6 mph - N/A   Clear
10:56 PM 39.0 °F 34.8 °F 28.0 °F 65% 30.49 in 10.0 mi NNE 5.8 mph - N/A   Partly Cloudy
11:56 PM 39.0 °F 33.4 °F 28.0 °F 65% 30.48 in 10.0 mi NNE 8.1 mph - N/A   Partly Cloudy